Reggio Calabria, Italy

11:10 AM CET on January 19, 2018 (GMT +0100)
Reggio Calabria

Weather History for LICR - November, 2013

Change the Weather History Date:

Friday, November 1, 2013

  Actual Average Record
Temperature  
Mean Temperature 68 °F -  
Max Temperature 75 °F 66 °F 80 °F (2003)
Min Temperature 62 °F 55 °F 52 °F (2014)
Cooling Degree Days 4    
Growing Degree Days 18 (Base 50)    
Moisture  
Dew Point 59 °F    
Average Humidity 70    
Maximum Humidity 83    
Minimum Humidity 50    
Precipitation  
Precipitation 0.00 in - - ()
Sea Level Pressure  
Sea Level Pressure 30.14 in    
Wind  
Wind Speed 6 mph ()    
Max Wind Speed 14 mph    
Max Gust Speed -    
Visibility 6.2 miles    
Events Thunderstorm    
Averages and records for this station are not official NWS values.
T = Trace of Precipitation, MM = Missing Value Source: Averaged Metar Reports

Daily Weather History Graph

Daily Weather History Graph

Search for Another Location

Airport or City:

Trip Planner

Search our weather history database for the weather conditions in past years. The results will help you decide how hot, cold, wet, or windy it might be!

Date:

Astronomy

Nov. 01, 2013 Rise Set
Actual Time 6:23 AM CET 4:58 PM CET
Civil Twilight 5:55 AM CET 5:25 PM CET
Nautical Twilight 5:24 AM CET 5:56 PM CET
Astronomical Twilight 4:54 AM CET 6:27 PM CET
Moon 3:58 AM CET (11/1) 3:39 PM CET (11/1)
Length of Visible Light 11h 29m
Length of Day
10h 35m
Waning Crescent, 5% of the Moon is Illuminated
Nov 1
Waning Crescent
Nov 3
New
Nov 10
First Quarter
Nov 17
Full
Nov 25
Last Quarter

Hourly Weather History & Observations

Time (CET) Temp. Dew Point Humidity Pressure Visibility Wind Dir Wind Speed Gust Speed Precip Events Conditions
5:50 AM 64.4 °F 57.2 °F 77% 30.12 in 6.2 mi Variable 2.3 mph - N/A   Scattered Clouds
6:06 AM 66.2 °F 57.2 °F 73% 30.12 in 6.2 mi Variable 2.3 mph - N/A Thunderstorm Scattered Clouds
6:19 AM 66.2 °F 59.0 °F 78% 30.12 in 6.2 mi SSE 5.8 mph - N/A   Scattered Clouds
6:50 AM 66.2 °F 59.0 °F 78% 30.12 in 6.2 mi SE 4.6 mph - N/A   Scattered Clouds
7:50 AM 71.6 °F 64.4 °F 78% 30.12 in 6.2 mi SSW 9.2 mph - N/A   Scattered Clouds
8:50 AM 71.6 °F 62.6 °F 73% 30.15 in 6.2 mi SSE 5.8 mph - N/A   Scattered Clouds
9:50 AM 73.4 °F 60.8 °F 65% 30.15 in 6.2 mi SW 9.2 mph - N/A   Partly Cloudy
10:50 AM 75.2 °F 62.6 °F 65% 30.15 in 6.2 mi SSW 13.8 mph - N/A   Partly Cloudy
11:50 AM 75.2 °F 60.8 °F 61% 30.15 in 6.2 mi SSW 13.8 mph - N/A   Partly Cloudy
12:50 PM 75.2 °F 60.8 °F 61% 30.12 in 6.2 mi SSW 12.7 mph - N/A   Partly Cloudy
1:50 PM 75.2 °F 55.4 °F 50% 30.12 in 6.2 mi South 10.4 mph - N/A   Scattered Clouds
2:50 PM 75.2 °F 57.2 °F 53% 30.12 in 6.2 mi South 9.2 mph - N/A   Scattered Clouds
3:50 PM 73.4 °F 60.8 °F 65% 30.12 in 6.2 mi SSW 9.2 mph - N/A Thunderstorm Thunderstorm
4:50 PM 68.0 °F 59.0 °F 73% 30.12 in 6.2 mi North 10.4 mph - N/A   Scattered Clouds
5:50 PM 66.2 °F 59.0 °F 78% 30.15 in 6.2 mi NE 4.6 mph - N/A   Partly Cloudy
6:50 PM 64.4 °F 59.0 °F 83% 30.15 in 6.2 mi NE 4.6 mph - N/A   Partly Cloudy
7:50 PM 66.2 °F 57.2 °F 73% 30.15 in 6.2 mi Variable 2.3 mph - N/A   Partly Cloudy
8:50 PM 62.6 °F 55.4 °F 77% 30.15 in - NE 4.6 mph - N/A   Clear
9:50 PM 64.4 °F 55.4 °F 73% 30.15 in - NE 3.5 mph - N/A   Clear
10:50 PM 62.6 °F 55.4 °F 77% 30.15 in - NE 3.5 mph - N/A   Clear
11:50 PM 64.4 °F 53.6 °F 68% 30.15 in - NNE 2.3 mph - N/A   Clear